Weather History for Abingdon, VA

Change the Weather History Date:

Thursday, April 17, 2014

  Actual Average (KTRI) Record (KTRI)
Temperature  
Mean Temperature 52 °F 56 °F  
Max Temperature 67 °F 69 °F 85 °F (2002)
Min Temperature 36 °F 43 °F 24 °F (1949)
Degree Days  
Heating Degree Days 14 10  
Month to date heating degree days 202  
Since 1 July heating degree days 4152  
Cooling Degree Days 0 0  
Month to date cooling degree days 0  
Year to date cooling degree days 1  
Growing Degree Days 2 (Base 50)    
Moisture  
Dew Point 23 °F    
Average Humidity 36    
Maximum Humidity 55    
Minimum Humidity 18    
Precipitation  
Precipitation 0.00 in 0.11 in 1.30 in (2003)
Month to date precipitation 1.86  
Year to date precipitation 12.12  
Snow  
Snow 0.00 in 0.00 in - ()
Month to date snowfall 0.8  
Since 1 July snowfall 13.0  
Snow Depth -    
Sea Level Pressure  
Sea Level Pressure 30.38 in    
Wind  
Wind Speed 10 mph (East)    
Max Wind Speed 16 mph    
Max Gust Speed 21 mph    
Visibility 10 miles    
Events      
T = Trace of Precipitation, MM = Missing Value Source: NWS Daily Summary

Daily Weather History Graph

Daily Weather History Graph

Search for Another Location

Airport:

Trip Planner

Search our weather history database for the weather conditions in past years. The results will help you decide how hot, cold, wet, or windy it might be!

Date:

Astronomy

Apr. 17, 2014 Rise Set
Actual Time 6:51 AM EDT 8:04 PM EDT
Civil Twilight 6:24 AM EDT 8:31 PM EDT
Nautical Twilight 5:52 AM EDT 9:03 PM EDT
Astronomical Twilight 5:19 AM EDT 9:36 PM EDT
Moon 10:45 PM EDT (4/17) 8:25 AM EDT (4/17)
Length of Visible Light 14h 06m
Length of Day
13h 12m
Waning Gibbous, 94% of the Moon is Illuminated
Apr 17
Waning Gibbous
Apr 22
Last Quarter
Apr 29
New
May 6
First Quarter
May 14
Full

Hourly Weather History & Observations

Time (EDT) Temp. Windchill Dew Point Humidity Pressure Visibility Wind Dir Wind Speed Gust Speed Precip Events Conditions
12:15 AM 43.9 °F 39.3 °F 19.0 °F 37% 30.32 in 10.0 mi ESE 8.1 mph - N/A   Clear
12:35 AM 43.3 °F 38.1 °F 19.4 °F 38% 30.33 in 10.0 mi ESE 9.2 mph - N/A   Clear
12:55 AM 43.0 °F 37.7 °F 19.4 °F 39% 30.33 in 10.0 mi ESE 9.2 mph - N/A   Clear
1:15 AM 42.8 °F 36.6 °F 19.8 °F 40% 30.34 in 10.0 mi ESE 11.5 mph - N/A   Clear
1:35 AM 42.8 °F 37.0 °F 19.9 °F 40% 30.34 in 10.0 mi ESE 10.4 mph - N/A   Clear
1:55 AM 41.5 °F 35.9 °F 20.8 °F 44% 30.34 in 10.0 mi ESE 9.2 mph - N/A   Clear
2:15 AM 42.1 °F 36.1 °F 20.3 °F 42% 30.34 in 10.0 mi ESE 10.4 mph - N/A   Clear
2:35 AM 41.9 °F 35.4 °F 20.5 °F 42% 30.35 in 10.0 mi ESE 11.5 mph - N/A   Clear
2:55 AM 41.0 °F 34.7 °F 21.0 °F 45% 30.36 in 10.0 mi ESE 10.4 mph - N/A   Clear
3:15 AM 40.5 °F 34.1 °F 21.2 °F 46% 30.36 in 10.0 mi ESE 10.4 mph - N/A   Clear
3:35 AM 40.3 °F 33.0 °F 21.2 °F 47% 30.36 in 10.0 mi East 12.7 mph - N/A   Clear
3:55 AM 40.1 °F 33.2 °F 21.6 °F 48% 30.37 in 10.0 mi East 11.5 mph - N/A   Clear
4:15 AM 39.6 °F 32.5 °F 21.6 °F 49% 30.38 in 10.0 mi East 11.5 mph - N/A   Clear
4:35 AM 39.0 °F 31.8 °F 21.9 °F 50% 30.39 in 10.0 mi East 11.5 mph - N/A   Clear
4:55 AM 38.5 °F 31.6 °F 21.9 °F 51% 30.39 in 10.0 mi East 10.4 mph - N/A   Clear
5:15 AM 38.1 °F 30.2 °F 22.1 °F 53% 30.39 in 10.0 mi East 12.7 mph - N/A   Clear
5:35 AM 37.4 °F 30.3 °F 22.1 °F 54% 30.39 in 10.0 mi East 10.4 mph - N/A   Clear
5:55 AM 37.2 °F 30.6 °F 21.9 °F 54% 30.40 in 10.0 mi East 9.2 mph - N/A   Clear
6:15 AM 37.9 °F 30.9 °F 21.2 °F 51% 30.40 in 10.0 mi East 10.4 mph - N/A   Clear
6:35 AM 36.7 °F 29.4 °F 21.9 °F 55% 30.40 in 10.0 mi East 10.4 mph - N/A   Clear
6:55 AM 36.9 °F 29.6 °F 21.6 °F 54% 30.41 in 10.0 mi East 10.4 mph - N/A   Clear
7:15 AM 37.4 °F 30.3 °F 21.6 °F 53% 30.41 in 10.0 mi East 10.4 mph - N/A   Clear
7:35 AM 37.0 °F 29.8 °F 22.3 °F 55% 30.42 in 10.0 mi East 10.4 mph - N/A   Clear
7:55 AM 38.7 °F 30.5 °F 22.1 °F 51% 30.42 in 10.0 mi East 13.8 mph - N/A   Clear
8:15 AM 40.1 °F 31.6 °F 22.1 °F 49% 30.43 in 10.0 mi East 16.1 mph 20.7 mph N/A   Clear
8:35 AM 41.2 °F 33.4 °F 22.3 °F 47% 30.43 in 10.0 mi East 15.0 mph - N/A   Clear
8:55 AM 41.9 °F 34.3 °F 21.9 °F 45% 30.43 in 10.0 mi East 15.0 mph - N/A   Clear
9:15 AM 43.7 °F 36.3 °F 22.6 °F 43% 30.43 in 10.0 mi East 16.1 mph 19.6 mph N/A   Clear
9:35 AM 44.4 °F 37.9 °F 22.8 °F 43% 30.44 in 10.0 mi East 13.8 mph - N/A   Clear
9:55 AM 45.7 °F 39.8 °F 22.8 °F 41% 30.44 in 10.0 mi East 12.7 mph - N/A   Clear
10:15 AM 46.6 °F - 22.8 °F 39% 30.45 in 10.0 mi East 15.0 mph - N/A   Clear
10:35 AM 48.4 °F - 24.4 °F 39% 30.45 in 10.0 mi East 11.5 mph - N/A   Clear
10:55 AM 49.6 °F - 24.1 °F 37% 30.45 in 10.0 mi East 12.7 mph - N/A   Clear
11:15 AM 50.9 °F - 23.7 °F 35% 30.45 in 10.0 mi East 12.7 mph 18.4 mph N/A   Clear
11:35 AM 52.3 °F - 24.6 °F 34% 30.44 in 10.0 mi East 13.8 mph - N/A   Clear
11:55 AM 53.8 °F - 24.1 °F 32% 30.44 in 10.0 mi East 12.7 mph - N/A   Clear
12:15 PM 54.9 °F - 24.3 °F 31% 30.43 in 10.0 mi East 10.4 mph 17.3 mph N/A   Clear
12:35 PM 55.4 °F - 24.1 °F 30% 30.43 in 10.0 mi East 10.4 mph - N/A   Clear
12:55 PM 57.0 °F - 24.8 °F 29% 30.42 in 10.0 mi East 10.4 mph - N/A   Clear
1:15 PM 57.7 °F - 24.3 °F 28% 30.42 in 10.0 mi East 9.2 mph 16.1 mph N/A   Clear
1:35 PM 59.5 °F - 24.3 °F 26% 30.40 in 10.0 mi NE 4.6 mph - N/A   Clear
1:55 PM 59.9 °F - 24.4 °F 26% 30.40 in 10.0 mi ENE 6.9 mph - N/A   Clear
2:15 PM 61.5 °F - 25.9 °F 26% 30.39 in 10.0 mi East 8.1 mph - N/A   Clear
2:35 PM 61.7 °F - 24.1 °F 24% 30.38 in 10.0 mi East 8.1 mph - N/A   Clear
2:55 PM 63.3 °F - 25.5 °F 24% 30.37 in 10.0 mi ENE 5.8 mph - N/A   Clear
3:15 PM 64.8 °F - 24.8 °F 22% 30.36 in 10.0 mi ENE 10.4 mph - N/A   Clear
3:35 PM 65.5 °F - 24.1 °F 21% 30.36 in 10.0 mi East 6.9 mph - N/A   Clear
3:55 PM 65.5 °F - 24.4 °F 21% 30.35 in 10.0 mi East 8.1 mph - N/A   Clear
4:15 PM 66.2 °F - 27.0 °F 23% 30.34 in 10.0 mi ENE 8.1 mph - N/A   Clear
4:35 PM 66.2 °F - 27.0 °F 23% 30.33 in 10.0 mi ENE 9.2 mph - N/A   Clear
4:55 PM 66.9 °F - 27.5 °F 23% 30.32 in 10.0 mi ESE 10.4 mph - N/A   Clear
5:15 PM 66.6 °F - 26.4 °F 22% 30.31 in 10.0 mi East 12.7 mph 18.4 mph N/A   Clear
5:35 PM 67.1 °F - 25.9 °F 21% 30.31 in 5.0 mi East 10.4 mph 18.4 mph N/A   Haze
5:55 PM 66.7 °F - 25.2 °F 21% 30.31 in 10.0 mi ESE 10.4 mph 15.0 mph N/A   Clear
6:15 PM 66.9 °F - 22.1 °F 18% 30.31 in 10.0 mi SSE 11.5 mph - N/A   Clear
6:35 PM 66.2 °F - 21.6 °F 18% 30.31 in 10.0 mi SE 11.5 mph - N/A   Clear
6:55 PM 64.9 °F - 20.3 °F 18% 30.31 in 10.0 mi SSE 15.0 mph - N/A   Clear
7:15 PM 63.9 °F - 21.6 °F 20% 30.32 in 10.0 mi SE 9.2 mph - N/A   Clear
7:35 PM 62.6 °F - 19.0 °F 19% 30.34 in 10.0 mi SSE 6.9 mph - N/A   Clear
7:55 PM 61.3 °F - 20.7 °F 21% 30.34 in 10.0 mi South 9.2 mph - N/A   Clear
8:15 PM 58.8 °F - 21.6 °F 24% 30.34 in 10.0 mi SE 8.1 mph - N/A   Clear
8:35 PM 57.2 °F - 21.9 °F 26% 30.35 in 10.0 mi SE 5.8 mph - N/A   Clear
8:55 PM 55.2 °F - 23.2 °F 29% 30.35 in 10.0 mi ESE 8.1 mph - N/A   Clear
9:15 PM 53.8 °F - 24.1 °F 32% 30.37 in 10.0 mi ESE 9.2 mph - N/A   Clear
9:35 PM 52.0 °F - 25.3 °F 36% 30.37 in 10.0 mi ESE 10.4 mph - N/A   Clear
9:55 PM 52.5 °F - 24.1 °F 33% 30.37 in 10.0 mi ESE 11.5 mph - N/A   Clear
10:15 PM 52.3 °F - 23.7 °F 33% 30.39 in 10.0 mi ESE 8.1 mph - N/A   Clear
10:35 PM 50.2 °F - 24.6 °F 37% 30.39 in 10.0 mi East 9.2 mph - N/A   Clear
10:55 PM 50.0 °F - 24.3 °F 37% 30.39 in 10.0 mi East 10.4 mph - N/A   Clear
11:15 PM 49.1 °F - 24.3 °F 38% 30.38 in 10.0 mi East 9.2 mph - N/A   Clear
11:35 PM 48.4 °F - 23.9 °F 38% 30.38 in 10.0 mi East 10.4 mph - N/A   Clear
11:55 PM 48.6 °F - 23.2 °F 37% 30.38 in 10.0 mi East 10.4 mph - N/A   Clear